Weather History for KVKY - December, 2013

Change the Weather History Date:

Monday, December 9, 2013

  Actual Average Record
Temperature  
Mean Temperature 72 °F -  
Max Temperature 75 °F - - ()
Min Temperature 68 °F - - ()
Cooling Degree Days 6    
Growing Degree Days 22 (Base 50)    
Moisture  
Dew Point 70 °F    
Average Humidity 95    
Maximum Humidity 100    
Minimum Humidity 88    
Precipitation  
Precipitation 0.00 in - - ()
Sea Level Pressure  
Sea Level Pressure 30.07 in    
Wind  
Wind Speed 10 mph (SE)    
Max Wind Speed 17 mph    
Max Gust Speed 18 mph    
Visibility 8 miles    
Events Fog    
T = Trace of Precipitation, MM = Missing Value Source: NWS Daily Summary

Daily Weather History Graph

Daily Weather History Graph

Search for Another Location

Airport or City:

Trip Planner

Search our weather history database for the weather conditions in past years. The results will help you decide how hot, cold, wet, or windy it might be!

Date:

Astronomy

Dec. 09, 2013 Rise Set
Actual Time 6:36 AM CST 4:55 PM CST
Civil Twilight 6:10 AM CST 5:21 PM CST
Nautical Twilight 5:41 AM CST 5:51 PM CST
Astronomical Twilight 5:12 AM CST 6:20 PM CST
Moon 11:56 AM CST (12/9) No Moon Set
Length of Visible Light 11h 11m
Length of Day
10h 19m
Waxing Crescent, 51% of the Moon is Illuminated
Dec 9
Waxing Crescent
Dec 17
Full
Dec 25
Last Quarter
Jan 1
New
Jan 7
First Quarter

Hourly Weather History & Observations

Time (CST) Temp. Dew Point Humidity Pressure Visibility Wind Dir Wind Speed Gust Speed Precip Events Conditions
12:15 AM 73.4 °F 69.8 °F 88% 30.08 in 10.0 mi SW 13.8 mph - N/A   Partly Cloudy
12:35 AM 75.2 °F 71.6 °F 89% 30.06 in 10.0 mi SW 15.0 mph - N/A   Clear
12:55 AM 73.4 °F 69.8 °F 88% 30.07 in 10.0 mi SW 13.8 mph - N/A   Clear
1:15 AM 73.4 °F 71.6 °F 94% 30.07 in 10.0 mi SW 15.0 mph - N/A   Clear
1:35 AM 73.4 °F 71.6 °F 94% 30.06 in 10.0 mi SW 17.3 mph - N/A   Clear
1:55 AM 75.2 °F 71.6 °F 89% 30.05 in 10.0 mi SW 11.5 mph 18.4 mph N/A   Clear
2:15 AM 73.4 °F 71.6 °F 94% 30.05 in 10.0 mi SW 15.0 mph - N/A   Clear
2:35 AM 73.4 °F 71.6 °F 94% 30.06 in 10.0 mi WSW 11.5 mph - N/A   Partly Cloudy
2:55 AM 73.4 °F 71.6 °F 94% 30.06 in 10.0 mi WSW 10.4 mph - N/A   Mostly Cloudy
3:15 AM 73.4 °F 71.6 °F 94% 30.06 in 10.0 mi WSW 12.7 mph - N/A   Scattered Clouds
3:35 AM 73.4 °F 71.6 °F 94% 30.05 in 10.0 mi SW 13.8 mph - N/A   Clear
3:55 AM 73.4 °F 71.6 °F 94% 30.05 in 10.0 mi SW 11.5 mph - N/A   Clear
4:15 AM 73.4 °F 71.6 °F 94% 30.05 in 10.0 mi WSW 10.4 mph - N/A   Partly Cloudy
4:35 AM 73.4 °F 71.6 °F 94% 30.04 in 10.0 mi WSW 9.2 mph - N/A   Mostly Cloudy
4:55 AM 73.4 °F 71.6 °F 94% 30.05 in 10.0 mi WSW 6.9 mph - N/A   Overcast
5:15 AM 73.4 °F 71.6 °F 94% 30.05 in 10.0 mi West 5.8 mph - N/A   Overcast
5:35 AM 73.4 °F 71.6 °F 94% 30.06 in 10.0 mi WSW 6.9 mph - N/A   Mostly Cloudy
5:55 AM 73.4 °F 71.6 °F 94% 30.06 in 10.0 mi West 6.9 mph - N/A   Mostly Cloudy
6:15 AM 73.4 °F 71.6 °F 94% 30.06 in 10.0 mi WNW 5.8 mph - N/A   Mostly Cloudy
6:35 AM 73.4 °F 71.6 °F 94% 30.06 in 10.0 mi WNW 6.9 mph - N/A   Overcast
6:55 AM 73.4 °F 71.6 °F 94% 30.07 in 10.0 mi SW 5.8 mph - N/A   Overcast
7:15 AM 73.4 °F 71.6 °F 94% 30.08 in 10.0 mi Calm Calm - N/A   Overcast
7:35 AM 73.4 °F 71.6 °F 94% 30.08 in 10.0 mi Calm Calm - N/A   Overcast
7:55 AM 69.8 °F 68.0 °F 94% 30.08 in 2.0 mi North 13.8 mph - N/A   Overcast
8:15 AM 68.0 °F 68.0 °F 100% 30.09 in 0.2 mi NNE 10.4 mph - N/A Fog Fog
8:35 AM 68.0 °F 66.2 °F 94% 30.10 in 0.2 mi NNE 8.1 mph - N/A Fog Fog
8:55 AM 68.0 °F 66.2 °F 94% 30.11 in 0.2 mi NNE 10.4 mph - N/A Fog Fog
9:15 AM 68.0 °F 66.2 °F 94% 30.11 in 0.2 mi NNE 8.1 mph - N/A Fog Fog
9:35 AM 68.0 °F 66.2 °F 94% 30.11 in 0.2 mi NNE 8.1 mph - N/A Fog Fog
9:55 AM 68.0 °F 66.2 °F 94% 30.12 in 0.2 mi NE 4.6 mph - N/A Fog Fog
10:15 AM 68.0 °F 66.2 °F 94% 30.12 in 0.5 mi NE 8.1 mph - N/A Fog Fog
10:35 AM 68.0 °F 66.2 °F 94% 30.11 in 0.2 mi NE 6.9 mph - N/A Fog Fog
10:55 AM 68.0 °F 66.2 °F 94% 30.11 in 0.5 mi NE 5.8 mph - N/A   Overcast
11:15 AM 68.0 °F 66.2 °F 94% 30.11 in 1.0 mi ENE 3.5 mph - N/A   Overcast
11:35 AM 68.0 °F 68.0 °F 100% 30.09 in 0.5 mi East 4.6 mph - N/A   Overcast
11:55 AM 68.0 °F 68.0 °F 100% 30.08 in 1.5 mi East 3.5 mph - N/A   Overcast
12:15 PM 68.0 °F 68.0 °F 100% 30.07 in 10.0 mi SE 5.8 mph - N/A   Overcast
12:35 PM 68.0 °F 68.0 °F 100% 30.07 in 10.0 mi Calm Calm - N/A   Overcast
12:55 PM 68.0 °F 68.0 °F 100% 30.06 in 10.0 mi Calm Calm - N/A   Overcast
1:15 PM 68.0 °F 68.0 °F 100% 30.05 in 10.0 mi East 3.5 mph - N/A   Overcast
1:35 PM 68.0 °F 68.0 °F 100% 30.05 in 10.0 mi NE 4.6 mph - N/A   Overcast
1:55 PM 68.0 °F 68.0 °F 100% 30.05 in 10.0 mi East 5.8 mph - N/A   Overcast
2:15 PM 69.8 °F 68.0 °F 94% 30.05 in 10.0 mi Calm Calm - N/A   Overcast
2:35 PM 69.8 °F 68.0 °F 94% 30.04 in 10.0 mi East 5.8 mph - N/A   Overcast
2:55 PM 69.8 °F 68.0 °F 94% 30.05 in 10.0 mi ENE 5.8 mph - N/A   Overcast
3:15 PM 69.8 °F 68.0 °F 94% 30.05 in 10.0 mi East 5.8 mph - N/A   Overcast
3:35 PM 69.8 °F 68.0 °F 94% 30.05 in 10.0 mi ENE 4.6 mph - N/A   Overcast
3:55 PM 69.8 °F 68.0 °F 94% 30.05 in 10.0 mi East 5.8 mph - N/A   Overcast
4:15 PM 69.8 °F 68.0 °F 94% 30.05 in 10.0 mi East 11.5 mph - N/A   Overcast
4:35 PM 69.8 °F 68.0 °F 94% 30.05 in 10.0 mi East 12.7 mph - N/A   Overcast
4:55 PM 69.8 °F 68.0 °F 94% 30.05 in 10.0 mi East 12.7 mph - N/A   Overcast
5:15 PM 69.8 °F 68.0 °F 94% 30.05 in 10.0 mi ESE 12.7 mph - N/A   Overcast
5:35 PM 69.8 °F 68.0 °F 94% 30.05 in 10.0 mi ESE 12.7 mph - N/A   Overcast
5:55 PM 69.8 °F 69.8 °F 100% 30.05 in 10.0 mi ESE 11.5 mph - N/A   Overcast
6:15 PM 71.6 °F 69.8 °F 94% 30.05 in 10.0 mi SE 12.7 mph - N/A   Overcast
6:35 PM 71.6 °F 69.8 °F 94% 30.06 in 10.0 mi SE 12.7 mph - N/A   Overcast
6:55 PM 71.6 °F 69.8 °F 94% 30.06 in 10.0 mi SE 12.7 mph - N/A   Mostly Cloudy
7:15 PM 71.6 °F 69.8 °F 94% 30.06 in 10.0 mi SE 13.8 mph - N/A   Overcast
7:35 PM 71.6 °F 69.8 °F 94% 30.07 in 10.0 mi SE 9.2 mph - N/A   Overcast
7:55 PM 71.6 °F 69.8 °F 94% 30.07 in 10.0 mi SE 11.5 mph - N/A   Overcast
8:15 PM 71.6 °F 69.8 °F 94% 30.07 in 10.0 mi SE 9.2 mph - N/A   Overcast
8:35 PM 71.6 °F 69.8 °F 94% 30.07 in 10.0 mi SE 10.4 mph - N/A   Overcast
8:55 PM 71.6 °F 69.8 °F 94% 30.07 in 10.0 mi SSE 8.1 mph - N/A   Scattered Clouds
9:15 PM 71.6 °F 69.8 °F 94% 30.06 in 10.0 mi SSE 9.2 mph - N/A   Mostly Cloudy
9:35 PM 71.6 °F 69.8 °F 94% 30.06 in 10.0 mi SSE 8.1 mph - N/A   Scattered Clouds
9:55 PM 71.6 °F 71.6 °F 100% 30.07 in 10.0 mi SSE 6.9 mph - N/A   Scattered Clouds
10:15 PM 73.4 °F 71.6 °F 94% 30.06 in 10.0 mi Variable 4.6 mph - N/A   Mostly Cloudy
10:35 PM 73.4 °F 71.6 °F 94% 30.06 in 10.0 mi WSW 4.6 mph - N/A   Mostly Cloudy
10:55 PM 73.4 °F 71.6 °F 94% 30.06 in 10.0 mi West 6.9 mph - N/A   Mostly Cloudy
11:15 PM 73.4 °F 71.6 °F 94% 30.06 in 10.0 mi West 8.1 mph - N/A   Mostly Cloudy
11:35 PM 73.4 °F 71.6 °F 94% 30.06 in 10.0 mi West 9.2 mph - N/A   Scattered Clouds
11:55 PM 73.4 °F 71.6 °F 94% 30.06 in 10.0 mi West 10.4 mph - N/A   Mostly Cloudy